Year,Month,Day,Hour,Minute,Value (Times are PST for temperature in C)
2017,03,21,00,00,7.70
2017,03,21,00,01,7.70
2017,03,21,00,02,7.70
2017,03,21,00,03,7.70
2017,03,21,00,04,7.70
2017,03,21,00,05,7.70
2017,03,21,00,06,7.80
2017,03,21,00,07,7.80
2017,03,21,00,08,7.80
2017,03,21,00,09,7.80
2017,03,21,00,10,7.80
2017,03,21,00,11,7.80
2017,03,21,00,12,7.80
2017,03,21,00,13,7.90
2017,03,21,00,14,7.90
2017,03,21,00,15,7.90
2017,03,21,00,16,7.90
2017,03,21,00,17,7.90
2017,03,21,00,18,7.90
2017,03,21,00,19,7.90
2017,03,21,00,20,7.90
2017,03,21,00,21,7.90
2017,03,21,00,22,7.90
2017,03,21,00,23,7.90
2017,03,21,00,24,7.90
2017,03,21,00,25,7.90
2017,03,21,00,26,7.90
2017,03,21,00,27,7.90
2017,03,21,00,28,7.90
2017,03,21,00,29,7.90
2017,03,21,00,30,7.90
2017,03,21,00,31,7.90
2017,03,21,00,32,7.90
2017,03,21,00,33,7.90
2017,03,21,00,34,7.90
2017,03,21,00,35,7.90
2017,03,21,00,36,7.90
2017,03,21,00,37,7.90
2017,03,21,00,38,7.90
2017,03,21,00,39,8.00
2017,03,21,00,40,8.00
2017,03,21,00,41,8.00
2017,03,21,00,42,8.00
2017,03,21,00,43,8.00
2017,03,21,00,44,8.00
2017,03,21,00,45,8.00
2017,03,21,00,46,8.00
2017,03,21,00,47,8.10
2017,03,21,00,48,8.10
2017,03,21,00,49,8.10
2017,03,21,00,50,8.10
2017,03,21,00,51,8.10
2017,03,21,00,52,8.10
2017,03,21,00,53,8.10
2017,03,21,00,54,8.20
2017,03,21,00,55,8.20
2017,03,21,00,56,8.20
2017,03,21,00,57,8.20
2017,03,21,00,58,8.20
2017,03,21,00,59,8.20
2017,03,21,01,00,8.20
2017,03,21,01,01,8.20
2017,03,21,01,02,8.10
2017,03,21,01,03,8.10
2017,03,21,01,04,8.10
2017,03,21,01,05,8.20
2017,03,21,01,06,8.20
2017,03,21,01,07,8.20
2017,03,21,01,08,8.20
2017,03,21,01,09,8.20
2017,03,21,01,10,8.20
2017,03,21,01,11,8.20
2017,03,21,01,12,8.20
2017,03,21,01,13,8.20
2017,03,21,01,14,8.20
2017,03,21,01,15,8.20
2017,03,21,01,16,8.20
2017,03,21,01,17,8.20
2017,03,21,01,18,8.20
2017,03,21,01,19,8.20
2017,03,21,01,20,8.20
2017,03,21,01,21,8.20
2017,03,21,01,22,8.20
2017,03,21,01,23,8.20
2017,03,21,01,24,8.20
2017,03,21,01,25,8.20
2017,03,21,01,26,8.20
2017,03,21,01,27,8.20
2017,03,21,01,28,8.30
2017,03,21,01,29,8.20
2017,03,21,01,30,8.20
2017,03,21,01,31,8.20
2017,03,21,01,32,8.30
2017,03,21,01,33,8.30
2017,03,21,01,34,8.30
2017,03,21,01,35,8.30
2017,03,21,01,36,8.30
2017,03,21,01,37,8.30
2017,03,21,01,38,8.30
2017,03,21,01,39,8.30
2017,03,21,01,40,8.30
2017,03,21,01,41,8.30
2017,03,21,01,42,8.30
2017,03,21,01,43,8.30
2017,03,21,01,44,8.30
2017,03,21,01,45,8.30
2017,03,21,01,46,8.30
2017,03,21,01,47,8.30
2017,03,21,01,48,8.30
2017,03,21,01,49,8.30
2017,03,21,01,50,8.30
2017,03,21,01,51,8.30
2017,03,21,01,52,8.30
2017,03,21,01,53,8.30
2017,03,21,01,54,8.30
2017,03,21,01,55,8.30
2017,03,21,01,56,8.30
2017,03,21,01,57,8.30
2017,03,21,01,58,8.30
2017,03,21,01,59,8.30
2017,03,21,02,00,8.30
2017,03,21,02,01,8.30
2017,03,21,02,02,8.30
2017,03,21,02,03,8.30
2017,03,21,02,04,8.30
2017,03,21,02,05,8.30
2017,03,21,02,06,8.40
2017,03,21,02,07,8.40
2017,03,21,02,08,8.40
2017,03,21,02,09,8.40
2017,03,21,02,10,8.40
2017,03,21,02,11,8.40
2017,03,21,02,12,8.40
2017,03,21,02,13,8.40
2017,03,21,02,14,8.40
2017,03,21,02,15,8.40
2017,03,21,02,16,8.40
2017,03,21,02,17,8.40
2017,03,21,02,18,8.40
2017,03,21,02,19,8.40
2017,03,21,02,20,8.40
2017,03,21,02,21,8.40
2017,03,21,02,22,8.40
2017,03,21,02,23,8.40
2017,03,21,02,24,8.40
2017,03,21,02,25,8.40
2017,03,21,02,26,8.40
2017,03,21,02,27,8.40
2017,03,21,02,28,8.40
2017,03,21,02,29,8.40
2017,03,21,02,30,8.40
2017,03,21,02,31,8.40
2017,03,21,02,32,8.40
2017,03,21,02,33,8.40
2017,03,21,02,34,8.40
2017,03,21,02,35,8.40
2017,03,21,02,36,8.40
2017,03,21,02,37,8.40
2017,03,21,02,38,8.40
2017,03,21,02,39,8.40
2017,03,21,02,40,8.40
2017,03,21,02,41,8.40
2017,03,21,02,42,8.40
2017,03,21,02,43,8.40
2017,03,21,02,44,8.40
2017,03,21,02,45,8.40
2017,03,21,02,46,8.40
2017,03,21,02,47,8.40
2017,03,21,02,48,8.40
2017,03,21,02,49,8.40
2017,03,21,02,50,8.40
2017,03,21,02,51,8.40
2017,03,21,02,52,8.40
2017,03,21,02,53,8.40
2017,03,21,02,54,8.40
2017,03,21,02,55,8.40
2017,03,21,02,56,8.40
2017,03,21,02,57,8.40
2017,03,21,02,58,8.40
2017,03,21,02,59,8.40
2017,03,21,03,00,8.40
2017,03,21,03,01,8.40
2017,03,21,03,02,8.40
2017,03,21,03,03,8.40
2017,03,21,03,04,8.50
2017,03,21,03,05,8.50
2017,03,21,03,06,8.50
2017,03,21,03,07,8.60
2017,03,21,03,08,8.60
2017,03,21,03,09,8.60
2017,03,21,03,10,8.60
2017,03,21,03,11,8.60
2017,03,21,03,12,8.60
2017,03,21,03,13,8.60
2017,03,21,03,14,8.60
2017,03,21,03,15,8.70
2017,03,21,03,16,8.70
2017,03,21,03,17,8.70
2017,03,21,03,18,8.70
2017,03,21,03,19,8.70
2017,03,21,03,20,8.70
2017,03,21,03,21,8.70
2017,03,21,03,22,8.70
2017,03,21,03,23,8.70
2017,03,21,03,24,8.70
2017,03,21,03,25,8.70
2017,03,21,03,26,8.70
2017,03,21,03,27,8.70
2017,03,21,03,28,8.70
2017,03,21,03,29,8.60
2017,03,21,03,30,8.60
2017,03,21,03,31,8.60
2017,03,21,03,32,8.60
2017,03,21,03,33,8.60
2017,03,21,03,34,8.60
2017,03,21,03,35,8.60
2017,03,21,03,36,8.60
2017,03,21,03,37,8.60
2017,03,21,03,38,8.60
2017,03,21,03,39,8.60
2017,03,21,03,40,8.50
2017,03,21,03,41,8.50
2017,03,21,03,42,8.50
2017,03,21,03,43,8.40
2017,03,21,03,44,8.40
2017,03,21,03,45,8.40
2017,03,21,03,46,8.40
2017,03,21,03,47,8.40
2017,03,21,03,48,8.40
2017,03,21,03,49,8.40
2017,03,21,03,50,8.40
2017,03,21,03,51,8.40
2017,03,21,03,52,8.40
2017,03,21,03,53,8.30
2017,03,21,03,54,8.30
2017,03,21,03,55,8.30
2017,03,21,03,56,8.30
2017,03,21,03,57,8.30
2017,03,21,03,58,8.30
2017,03,21,03,59,8.20
2017,03,21,04,00,8.20
2017,03,21,04,01,8.20
2017,03,21,04,02,8.20
2017,03,21,04,03,8.20
2017,03,21,04,04,8.10
2017,03,21,04,05,8.10
2017,03,21,04,06,8.10
2017,03,21,04,07,8.10
2017,03,21,04,08,8.00
2017,03,21,04,09,8.00
2017,03,21,04,10,8.00
2017,03,21,04,11,7.90
2017,03,21,04,12,7.90
2017,03,21,04,13,7.90
2017,03,21,04,14,7.90
2017,03,21,04,15,7.90
2017,03,21,04,16,7.80
2017,03,21,04,17,7.80
2017,03,21,04,18,7.80
2017,03,21,04,19,7.80
2017,03,21,04,20,7.80
2017,03,21,04,21,7.70
2017,03,21,04,22,7.70
2017,03,21,04,23,7.60
2017,03,21,04,24,7.60
2017,03,21,04,25,7.60
2017,03,21,04,26,7.50
2017,03,21,04,27,7.50
2017,03,21,04,28,7.50
2017,03,21,04,29,7.40
2017,03,21,04,30,7.40
2017,03,21,04,31,7.40
2017,03,21,04,32,7.40
2017,03,21,04,33,7.30
2017,03,21,04,34,7.30
2017,03,21,04,35,7.30
2017,03,21,04,36,7.30
2017,03,21,04,37,7.30
2017,03,21,04,38,7.30
2017,03,21,04,39,7.30
2017,03,21,04,40,7.30
2017,03,21,04,41,7.30
2017,03,21,04,42,7.30
2017,03,21,04,43,7.30
2017,03,21,04,44,7.30
2017,03,21,04,45,7.30
2017,03,21,04,46,7.30
2017,03,21,04,47,7.30
2017,03,21,04,48,7.30
2017,03,21,04,49,7.20
2017,03,21,04,50,7.20
2017,03,21,04,51,7.20
2017,03,21,04,52,7.20
2017,03,21,04,53,7.20
2017,03,21,04,54,7.20
2017,03,21,04,55,7.20
2017,03,21,04,56,7.20
2017,03,21,04,57,7.20
2017,03,21,04,58,7.20
2017,03,21,04,59,7.20
2017,03,21,05,00,7.20
2017,03,21,05,01,7.20
2017,03,21,05,02,7.20
2017,03,21,05,03,7.20
2017,03,21,05,04,7.30
2017,03,21,05,05,7.30
2017,03,21,05,06,7.30
2017,03,21,05,07,7.20
2017,03,21,05,08,7.20
2017,03,21,05,09,7.30
2017,03,21,05,10,7.30
2017,03,21,05,11,7.30
2017,03,21,05,12,7.20
2017,03,21,05,13,7.30
2017,03,21,05,14,7.30
2017,03,21,05,15,7.20
2017,03,21,05,16,7.30
2017,03,21,05,17,7.20
2017,03,21,05,18,7.20
2017,03,21,05,19,7.20
2017,03,21,05,20,7.20
2017,03,21,05,21,7.20
2017,03,21,05,22,7.20
2017,03,21,05,23,7.20
2017,03,21,05,24,7.20
2017,03,21,05,25,7.20
2017,03,21,05,26,7.20
2017,03,21,05,27,7.20
2017,03,21,05,28,7.20
2017,03,21,05,29,7.10
2017,03,21,05,30,7.10
2017,03,21,05,31,7.10
2017,03,21,05,32,7.10
2017,03,21,05,33,7.10
2017,03,21,05,34,7.10
2017,03,21,05,35,7.10
2017,03,21,05,36,7.10
2017,03,21,05,37,7.10
2017,03,21,05,38,7.10
2017,03,21,05,39,7.10
2017,03,21,05,40,7.10
2017,03,21,05,41,7.10
2017,03,21,05,42,7.10
2017,03,21,05,43,7.10
2017,03,21,05,44,7.10
2017,03,21,05,45,7.10
2017,03,21,05,46,7.10
2017,03,21,05,47,7.10
2017,03,21,05,48,7.10
2017,03,21,05,49,7.10
2017,03,21,05,50,7.10
2017,03,21,05,51,7.10
2017,03,21,05,52,7.10
2017,03,21,05,53,7.10
2017,03,21,05,54,7.10
2017,03,21,05,55,7.10
2017,03,21,05,56,7.10
2017,03,21,05,57,7.10
2017,03,21,05,58,7.10
2017,03,21,05,59,7.10
2017,03,21,06,00,7.10
2017,03,21,06,01,7.10
2017,03,21,06,02,7.10
2017,03,21,06,03,7.10
2017,03,21,06,04,7.10
2017,03,21,06,05,7.10
2017,03,21,06,06,7.10
2017,03,21,06,07,7.10
2017,03,21,06,08,7.10
2017,03,21,06,09,7.10
2017,03,21,06,10,7.10
2017,03,21,06,11,7.10
2017,03,21,06,12,7.10
2017,03,21,06,13,7.10
2017,03,21,06,14,7.10
2017,03,21,06,15,7.20
2017,03,21,06,16,7.20
2017,03,21,06,17,7.20
2017,03,21,06,18,7.20
2017,03,21,06,19,7.20
2017,03,21,06,20,7.20
2017,03,21,06,21,7.20
2017,03,21,06,22,7.20
2017,03,21,06,23,7.20
2017,03,21,06,24,7.30
2017,03,21,06,25,7.30
2017,03,21,06,26,7.30
2017,03,21,06,27,7.30
2017,03,21,06,28,7.30
2017,03,21,06,29,7.30
2017,03,21,06,30,7.30
2017,03,21,06,31,7.30
2017,03,21,06,32,7.30
2017,03,21,06,33,7.30
2017,03,21,06,34,7.30
2017,03,21,06,35,7.30
2017,03,21,06,36,7.30
2017,03,21,06,37,7.30
2017,03,21,06,38,7.30
2017,03,21,06,39,7.30
2017,03,21,06,40,7.30
2017,03,21,06,41,7.30
2017,03,21,06,42,7.30
2017,03,21,06,43,7.30
2017,03,21,06,44,7.30
2017,03,21,06,45,7.30
2017,03,21,06,46,7.30
2017,03,21,06,47,7.30
2017,03,21,06,48,7.30
2017,03,21,06,49,7.30
2017,03,21,06,50,7.30
2017,03,21,06,51,7.30
2017,03,21,06,52,7.30
2017,03,21,06,53,7.30
2017,03,21,06,54,7.30
2017,03,21,06,55,7.30
2017,03,21,06,56,7.30
2017,03,21,06,57,7.30
2017,03,21,06,58,7.30
2017,03,21,06,59,7.30
2017,03,21,07,00,7.30
2017,03,21,07,01,7.30
2017,03,21,07,02,7.30
2017,03,21,07,03,7.30
2017,03,21,07,04,7.30
2017,03,21,07,05,7.20
2017,03,21,07,06,7.20
2017,03,21,07,07,7.20
2017,03,21,07,08,7.30
2017,03,21,07,09,7.30
2017,03,21,07,10,7.30
2017,03,21,07,11,7.30
2017,03,21,07,12,7.30
2017,03,21,07,13,7.30
2017,03,21,07,14,7.30
2017,03,21,07,15,7.30
2017,03,21,07,16,7.30
2017,03,21,07,17,7.30
2017,03,21,07,18,7.30
2017,03,21,07,19,7.30
2017,03,21,07,20,7.30
2017,03,21,07,21,7.30
2017,03,21,07,22,7.30
2017,03,21,07,23,7.30
2017,03,21,07,24,7.30
2017,03,21,07,25,7.30
2017,03,21,07,26,7.30
2017,03,21,07,27,7.20
2017,03,21,07,28,7.20
2017,03,21,07,29,7.20
2017,03,21,07,30,7.20
2017,03,21,07,31,7.20
2017,03,21,07,32,7.20
2017,03,21,07,33,7.20
2017,03,21,07,34,7.20
2017,03,21,07,35,7.20
2017,03,21,07,36,7.20
2017,03,21,07,37,7.20
2017,03,21,07,38,7.20
2017,03,21,07,39,7.20
2017,03,21,07,40,7.20
2017,03,21,07,41,7.20
2017,03,21,07,42,7.20
2017,03,21,07,43,7.20
2017,03,21,07,44,7.20
2017,03,21,07,45,7.20
2017,03,21,07,46,7.20
2017,03,21,07,47,7.20
2017,03,21,07,48,7.20
2017,03,21,07,49,7.20
2017,03,21,07,50,7.20
2017,03,21,07,51,7.20
2017,03,21,07,52,7.20
2017,03,21,07,53,7.30
2017,03,21,07,54,7.30
2017,03,21,07,55,7.30
2017,03,21,07,56,7.30
2017,03,21,07,57,7.30
2017,03,21,07,58,7.30
2017,03,21,07,59,7.30
2017,03,21,08,00,7.30
2017,03,21,08,01,7.30
2017,03,21,08,02,7.30
2017,03,21,08,03,7.30
2017,03,21,08,04,7.30
2017,03,21,08,05,7.30
2017,03,21,08,06,7.30
2017,03,21,08,07,7.40
2017,03,21,08,08,7.40
2017,03,21,08,09,7.40
2017,03,21,08,10,7.40
2017,03,21,08,11,7.40
2017,03,21,08,12,7.40
2017,03,21,08,13,7.50
2017,03,21,08,14,7.50
2017,03,21,08,15,7.50
2017,03,21,08,16,7.50
2017,03,21,08,17,7.50
2017,03,21,08,18,7.60
2017,03,21,08,19,7.60
2017,03,21,08,20,7.60
2017,03,21,08,21,7.60
2017,03,21,08,22,7.60
2017,03,21,08,23,7.60
2017,03,21,08,24,7.60
2017,03,21,08,25,7.60
2017,03,21,08,26,7.60
2017,03,21,08,27,7.60
2017,03,21,08,28,7.60
2017,03,21,08,29,7.60
2017,03,21,08,30,7.60
2017,03,21,08,31,7.60
2017,03,21,08,32,7.60
2017,03,21,08,33,7.60
2017,03,21,08,34,7.60
2017,03,21,08,35,7.60
2017,03,21,08,36,7.60
2017,03,21,08,37,7.60
2017,03,21,08,38,7.60
2017,03,21,08,39,7.60
2017,03,21,08,40,7.60
2017,03,21,08,41,7.60
2017,03,21,08,42,7.60
2017,03,21,08,43,7.60
2017,03,21,08,44,7.60
2017,03,21,08,45,7.70
2017,03,21,08,46,7.70
2017,03,21,08,47,7.70
2017,03,21,08,48,7.70
2017,03,21,08,49,7.70
2017,03,21,08,50,7.60
2017,03,21,08,51,7.60
2017,03,21,08,52,7.60
2017,03,21,08,53,7.60
2017,03,21,08,54,7.60
2017,03,21,08,55,7.60
2017,03,21,08,56,7.60
2017,03,21,08,57,7.60
2017,03,21,08,58,7.50
2017,03,21,08,59,7.50
2017,03,21,09,00,7.50
2017,03,21,09,01,7.50
2017,03,21,09,02,7.40
2017,03,21,09,03,7.40
2017,03,21,09,04,7.40
2017,03,21,09,05,7.40
2017,03,21,09,06,7.40
2017,03,21,09,07,7.40
2017,03,21,09,08,7.40
2017,03,21,09,09,7.40
2017,03,21,09,10,7.40
2017,03,21,09,11,7.50
2017,03,21,09,12,7.50
2017,03,21,09,13,7.50
2017,03,21,09,14,7.50
2017,03,21,09,15,7.50
2017,03,21,09,16,7.50
2017,03,21,09,17,7.50
2017,03,21,09,18,7.50
2017,03,21,09,19,7.50
2017,03,21,09,20,7.50
2017,03,21,09,21,7.50
2017,03,21,09,22,7.50
2017,03,21,09,23,7.60
2017,03,21,09,24,7.60
2017,03,21,09,25,7.60
2017,03,21,09,26,7.60
2017,03,21,09,27,7.60
2017,03,21,09,28,7.60
2017,03,21,09,29,7.60
2017,03,21,09,30,7.60
2017,03,21,09,31,7.70
2017,03,21,09,32,7.70
2017,03,21,09,33,7.70
2017,03,21,09,34,7.70
2017,03,21,09,35,7.70
2017,03,21,09,36,7.70
2017,03,21,09,37,7.70
2017,03,21,09,38,7.70
2017,03,21,09,39,7.80
2017,03,21,09,40,7.80
2017,03,21,09,41,7.80
2017,03,21,09,42,7.80
2017,03,21,09,43,7.80
2017,03,21,09,44,7.80
2017,03,21,09,45,7.80
2017,03,21,09,46,7.80
2017,03,21,09,47,7.80
2017,03,21,09,48,7.90
2017,03,21,09,49,7.90
2017,03,21,09,50,7.90
2017,03,21,09,51,7.90
2017,03,21,09,52,7.90
2017,03,21,09,53,7.90
2017,03,21,09,54,7.90
2017,03,21,09,55,7.90
2017,03,21,09,56,7.90
2017,03,21,09,57,7.90
2017,03,21,09,58,7.90
2017,03,21,09,59,7.90
2017,03,21,10,00,7.90
2017,03,21,10,01,7.90
2017,03,21,10,02,7.90
2017,03,21,10,03,7.90
2017,03,21,10,04,7.90
2017,03,21,10,05,7.90
2017,03,21,10,06,7.80
2017,03,21,10,07,7.80
2017,03,21,10,08,7.80
2017,03,21,10,09,7.80
2017,03,21,10,10,7.80
2017,03,21,10,11,7.80
2017,03,21,10,12,7.80
2017,03,21,10,13,7.80
2017,03,21,10,14,7.80
2017,03,21,10,15,7.80
2017,03,21,10,16,7.80
2017,03,21,10,17,7.80
2017,03,21,10,18,7.80
2017,03,21,10,19,7.80
2017,03,21,10,20,7.70
2017,03,21,10,21,7.70
2017,03,21,10,22,7.70
2017,03,21,10,23,7.70
2017,03,21,10,24,7.70
2017,03,21,10,25,7.70
2017,03,21,10,26,7.70
2017,03,21,10,27,7.70
2017,03,21,10,28,7.70
2017,03,21,10,29,7.70
2017,03,21,10,30,7.70
2017,03,21,10,31,7.80
2017,03,21,10,32,7.80
2017,03,21,10,33,7.80
2017,03,21,10,34,7.80
2017,03,21,10,35,7.80
2017,03,21,10,36,7.80
2017,03,21,10,37,7.80
2017,03,21,10,38,7.80
2017,03,21,10,39,7.80
2017,03,21,10,40,7.90
2017,03,21,10,41,7.90
2017,03,21,10,42,7.90
2017,03,21,10,43,7.80
2017,03,21,10,44,7.80
2017,03,21,10,45,7.80
2017,03,21,10,46,7.80
2017,03,21,10,47,7.80
2017,03,21,10,48,7.90
2017,03,21,10,49,7.90
2017,03,21,10,50,7.90
2017,03,21,10,51,7.90
2017,03,21,10,52,7.90
2017,03,21,10,53,7.90
2017,03,21,10,54,7.90
2017,03,21,10,55,7.90
2017,03,21,10,56,7.90
2017,03,21,10,57,7.90
2017,03,21,10,58,7.90
2017,03,21,10,59,7.90
2017,03,21,11,00,8.00
2017,03,21,11,01,8.00
2017,03,21,11,02,8.10
2017,03,21,11,03,8.20
2017,03,21,11,04,8.20
2017,03,21,11,05,8.30
2017,03,21,11,06,8.30
2017,03,21,11,07,8.30
2017,03,21,11,08,8.40
2017,03,21,11,09,8.40
2017,03,21,11,10,8.40
2017,03,21,11,11,8.40
2017,03,21,11,12,8.50
2017,03,21,11,13,8.60
2017,03,21,11,14,8.60
2017,03,21,11,15,8.70
2017,03,21,11,16,8.70
2017,03,21,11,17,8.70
2017,03,21,11,18,8.70
2017,03,21,11,19,8.80
2017,03,21,11,20,8.80
2017,03,21,11,21,8.80
2017,03,21,11,22,8.80
2017,03,21,11,23,8.80
2017,03,21,11,24,8.80
2017,03,21,11,25,8.80
2017,03,21,11,26,8.80
2017,03,21,11,27,8.70
2017,03,21,11,28,8.70
2017,03,21,11,29,8.70
2017,03,21,11,30,8.80
2017,03,21,11,31,8.80
2017,03,21,11,32,8.70
2017,03,21,11,33,8.80
2017,03,21,11,34,8.80
2017,03,21,11,35,8.80
2017,03,21,11,36,8.80
2017,03,21,11,37,8.80
2017,03,21,11,38,8.80
2017,03,21,11,39,8.80
2017,03,21,11,40,8.80
2017,03,21,11,41,8.90
2017,03,21,11,42,8.90
2017,03,21,11,43,8.90
2017,03,21,11,44,8.90
2017,03,21,11,45,8.90
2017,03,21,11,46,8.90
2017,03,21,11,47,8.80
2017,03,21,11,48,8.90
2017,03,21,11,49,8.90
2017,03,21,11,50,8.80
2017,03,21,11,51,8.80
2017,03,21,11,52,8.80
2017,03,21,11,53,8.90
2017,03,21,11,54,8.90
2017,03,21,11,55,8.90
2017,03,21,11,56,9.00
2017,03,21,11,57,9.00
2017,03,21,11,58,8.90
2017,03,21,11,59,8.90
2017,03,21,12,00,8.90
2017,03,21,12,01,8.90
2017,03,21,12,02,8.80
2017,03,21,12,03,8.80
2017,03,21,12,04,8.80
2017,03,21,12,05,8.80
2017,03,21,12,06,8.90
2017,03,21,12,07,8.90
2017,03,21,12,08,8.90
2017,03,21,12,09,8.90
2017,03,21,12,10,8.90
2017,03,21,12,11,8.90
2017,03,21,12,12,9.00
2017,03,21,12,13,9.00
2017,03,21,12,14,9.00
2017,03,21,12,15,9.00
2017,03,21,12,16,9.00
2017,03,21,12,17,8.90
2017,03,21,12,18,8.90
2017,03,21,12,19,8.90
2017,03,21,12,20,8.90
2017,03,21,12,21,8.90
2017,03,21,12,22,8.90
2017,03,21,12,23,8.90
2017,03,21,12,24,8.90
2017,03,21,12,25,8.90
2017,03,21,12,26,8.80
2017,03,21,12,27,8.80
2017,03,21,12,28,8.80
2017,03,21,12,29,8.80
2017,03,21,12,30,8.80
2017,03,21,12,31,8.80
2017,03,21,12,32,8.80
2017,03,21,12,33,8.70
2017,03,21,12,34,8.70
2017,03,21,12,35,8.70
2017,03,21,12,36,8.70
2017,03,21,12,37,8.70
2017,03,21,12,38,8.70
2017,03,21,12,39,8.70
2017,03,21,12,40,8.70
2017,03,21,12,41,8.70
2017,03,21,12,42,8.70
2017,03,21,12,43,8.60
2017,03,21,12,44,8.60
2017,03,21,12,45,8.60
2017,03,21,12,46,8.60
2017,03,21,12,47,8.60
2017,03,21,12,48,8.60
2017,03,21,12,49,8.60
2017,03,21,12,50,8.60
2017,03,21,12,51,8.60
2017,03,21,12,52,8.60
2017,03,21,12,53,8.60
2017,03,21,12,54,8.50
2017,03,21,12,55,8.50
2017,03,21,12,56,8.50
2017,03,21,12,57,8.50
2017,03,21,12,58,8.50
2017,03,21,12,59,8.50
2017,03,21,13,00,8.50
2017,03,21,13,01,8.60
2017,03,21,13,02,8.60
2017,03,21,13,03,8.60
2017,03,21,13,04,8.60
2017,03,21,13,05,8.70
2017,03,21,13,06,8.70
2017,03,21,13,07,8.70
2017,03,21,13,08,8.70
2017,03,21,13,09,8.80
2017,03,21,13,10,8.80
2017,03,21,13,11,8.90
2017,03,21,13,12,8.90
2017,03,21,13,13,9.00
2017,03,21,13,14,9.00
2017,03,21,13,15,9.10
2017,03,21,13,16,9.10
2017,03,21,13,17,9.20
2017,03,21,13,18,9.20
2017,03,21,13,19,9.20
2017,03,21,13,20,9.30
2017,03,21,13,21,9.20
2017,03,21,13,22,9.30
2017,03,21,13,23,9.30
2017,03,21,13,24,9.30
2017,03,21,13,25,9.30
2017,03,21,13,26,9.40
2017,03,21,13,27,9.40
2017,03,21,13,28,9.50
2017,03,21,13,29,9.50
2017,03,21,13,30,9.50
2017,03,21,13,31,9.50
2017,03,21,13,32,9.50
2017,03,21,13,33,9.50
2017,03,21,13,34,9.50
2017,03,21,13,35,9.60
2017,03,21,13,36,9.60
2017,03,21,13,37,9.60
2017,03,21,13,38,9.60
2017,03,21,13,39,9.60
2017,03,21,13,40,9.60
2017,03,21,13,41,9.60
2017,03,21,13,42,9.60
2017,03,21,13,43,9.60
2017,03,21,13,44,9.60
2017,03,21,13,45,9.60
2017,03,21,13,46,9.60
2017,03,21,13,47,9.60
2017,03,21,13,48,9.60
2017,03,21,13,49,9.60
2017,03,21,13,50,9.70
2017,03,21,13,51,9.70
2017,03,21,13,52,9.70
2017,03,21,13,53,9.70
2017,03,21,13,54,9.80
2017,03,21,13,55,9.80
2017,03,21,13,56,9.80
2017,03,21,13,57,9.90
2017,03,21,13,58,9.90
2017,03,21,13,59,9.90
2017,03,21,14,00,9.90
2017,03,21,14,01,9.90
2017,03,21,14,02,9.90
2017,03,21,14,03,9.90
2017,03,21,14,04,9.90
2017,03,21,14,05,9.90
2017,03,21,14,06,9.90
2017,03,21,14,07,9.90
2017,03,21,14,08,9.90
2017,03,21,14,09,9.90
2017,03,21,14,10,9.90
2017,03,21,14,11,9.90
2017,03,21,14,12,9.90
2017,03,21,14,13,9.90
2017,03,21,14,14,10.00
2017,03,21,14,15,10.00
2017,03,21,14,16,10.00
2017,03,21,14,17,10.00
2017,03,21,14,18,10.00
2017,03,21,14,19,10.00
2017,03,21,14,20,10.00
2017,03,21,14,21,10.10
2017,03,21,14,22,10.10
2017,03,21,14,23,10.10
2017,03,21,14,24,10.10
2017,03,21,14,25,10.10
2017,03,21,14,26,10.10
2017,03,21,14,27,10.10
2017,03,21,14,28,10.10
2017,03,21,14,29,10.20
2017,03,21,14,30,10.20
2017,03,21,14,31,10.20
2017,03,21,14,32,10.20
2017,03,21,14,33,10.20
2017,03,21,14,34,10.20
2017,03,21,14,35,10.20
2017,03,21,14,36,10.20
2017,03,21,14,37,10.20
2017,03,21,14,38,10.20
2017,03,21,14,39,10.20
2017,03,21,14,40,10.20
2017,03,21,14,41,10.20
2017,03,21,14,42,10.20
2017,03,21,14,43,10.20
2017,03,21,14,44,10.20
2017,03,21,14,45,10.20
2017,03,21,14,46,10.20
2017,03,21,14,47,10.30
2017,03,21,14,48,10.30
2017,03,21,14,49,10.30
2017,03,21,14,50,10.30
2017,03,21,14,51,10.30
2017,03,21,14,52,10.40
2017,03,21,14,53,10.40
2017,03,21,14,54,10.40
2017,03,21,14,55,10.40
2017,03,21,14,56,10.40
2017,03,21,14,57,10.30
2017,03,21,14,58,10.30
2017,03,21,14,59,10.30
2017,03,21,15,00,10.30
2017,03,21,15,01,10.30
2017,03,21,15,02,10.30
2017,03,21,15,03,10.30
2017,03,21,15,04,10.30
2017,03,21,15,05,10.30
2017,03,21,15,06,10.40
2017,03,21,15,07,10.40
2017,03,21,15,08,10.30
2017,03,21,15,09,10.30
2017,03,21,15,10,10.30
2017,03,21,15,11,10.30
2017,03,21,15,12,10.30
2017,03,21,15,13,10.30
2017,03,21,15,14,10.30
2017,03,21,15,15,10.30
2017,03,21,15,16,10.30
2017,03,21,15,17,10.40
2017,03,21,15,18,10.40
2017,03,21,15,19,10.40
2017,03,21,15,20,10.40
2017,03,21,15,21,10.40
2017,03,21,15,22,10.40
2017,03,21,15,23,10.40
2017,03,21,15,24,10.40
2017,03,21,15,25,10.40
2017,03,21,15,26,10.40
2017,03,21,15,27,10.40
2017,03,21,15,28,10.40
2017,03,21,15,29,10.40
2017,03,21,15,30,10.40
2017,03,21,15,31,10.40
2017,03,21,15,32,10.40
2017,03,21,15,33,10.40
2017,03,21,15,34,10.40
2017,03,21,15,35,10.40
2017,03,21,15,36,10.40
2017,03,21,15,37,10.40
2017,03,21,15,38,10.40
2017,03,21,15,39,10.40
2017,03,21,15,40,10.40
2017,03,21,15,41,10.40
2017,03,21,15,42,10.40
2017,03,21,15,43,10.50
2017,03,21,15,44,10.50
2017,03,21,15,45,10.50
2017,03,21,15,46,10.50
2017,03,21,15,47,10.50
2017,03,21,15,48,10.60
2017,03,21,15,49,10.60
2017,03,21,15,50,10.60
2017,03,21,15,51,10.60
2017,03,21,15,52,10.70
2017,03,21,15,53,10.70
2017,03,21,15,54,10.70
2017,03,21,15,55,10.70
2017,03,21,15,56,10.70
2017,03,21,15,57,10.70
2017,03,21,15,58,10.70
2017,03,21,15,59,10.70
2017,03,21,16,00,10.70
2017,03,21,16,01,10.70
2017,03,21,16,02,10.70
2017,03,21,16,03,10.70
2017,03,21,16,04,10.70
2017,03,21,16,05,10.70
2017,03,21,16,06,10.70
2017,03,21,16,07,10.70
2017,03,21,16,08,10.80
2017,03,21,16,09,10.80
2017,03,21,16,10,10.80
2017,03,21,16,11,10.80
2017,03,21,16,12,10.80
2017,03,21,16,13,10.80
2017,03,21,16,14,10.90
2017,03,21,16,15,10.90
2017,03,21,16,16,11.00
2017,03,21,16,17,11.00
2017,03,21,16,18,11.00
2017,03,21,16,19,11.00
2017,03,21,16,20,11.00
2017,03,21,16,21,11.00
2017,03,21,16,22,11.00
2017,03,21,16,23,11.00
2017,03,21,16,24,11.00
2017,03,21,16,25,11.00
2017,03,21,16,26,11.10
2017,03,21,16,27,11.10
2017,03,21,16,28,11.10
2017,03,21,16,29,11.10
2017,03,21,16,30,11.10
2017,03,21,16,31,11.10
2017,03,21,16,32,11.20
2017,03,21,16,33,11.30
2017,03,21,16,34,11.40
2017,03,21,16,35,11.40
2017,03,21,16,36,11.40
2017,03,21,16,37,11.40
2017,03,21,16,38,11.40
2017,03,21,16,39,11.50
2017,03,21,16,40,11.50
2017,03,21,16,41,11.50
2017,03,21,16,42,11.60
2017,03,21,16,43,11.60
2017,03,21,16,44,11.70
2017,03,21,16,45,11.70
2017,03,21,16,46,11.70
2017,03,21,16,47,11.70
2017,03,21,16,48,11.80
2017,03,21,16,49,11.80
2017,03,21,16,50,11.80
2017,03,21,16,51,11.80
2017,03,21,16,52,11.70
2017,03,21,16,53,11.70
2017,03,21,16,54,11.70
2017,03,21,16,55,11.60
2017,03,21,16,56,11.60
2017,03,21,16,57,11.60
2017,03,21,16,58,11.60
2017,03,21,16,59,11.70
2017,03,21,17,00,11.70
2017,03,21,17,01,11.70
2017,03,21,17,02,11.60
2017,03,21,17,03,11.50
2017,03,21,17,04,11.40
2017,03,21,17,05,11.40
2017,03,21,17,06,11.40
2017,03,21,17,07,11.40
2017,03,21,17,08,11.40
2017,03,21,17,09,11.30
2017,03,21,17,10,11.30
2017,03,21,17,11,11.20
2017,03,21,17,12,11.20
2017,03,21,17,13,11.10
2017,03,21,17,14,11.10
2017,03,21,17,15,11.00
2017,03,21,17,16,11.00
2017,03,21,17,17,10.90
2017,03,21,17,18,10.80
2017,03,21,17,19,10.80
2017,03,21,17,20,10.70
2017,03,21,17,21,10.70
2017,03,21,17,22,10.60
2017,03,21,17,23,10.60
2017,03,21,17,24,10.60
2017,03,21,17,25,10.60
2017,03,21,17,26,10.60
2017,03,21,17,27,10.70
2017,03,21,17,28,10.70
2017,03,21,17,29,10.70
2017,03,21,17,30,10.70
2017,03,21,17,31,10.70
2017,03,21,17,32,10.70
2017,03,21,17,33,10.70
2017,03,21,17,34,10.70
2017,03,21,17,35,10.70
2017,03,21,17,36,10.70
2017,03,21,17,37,10.60
2017,03,21,17,38,10.60
2017,03,21,17,39,10.50
2017,03,21,17,40,10.50
2017,03,21,17,41,10.50
2017,03,21,17,42,10.50
2017,03,21,17,43,10.50
2017,03,21,17,44,10.50
2017,03,21,17,45,10.50
2017,03,21,17,46,10.40
2017,03,21,17,47,10.40
2017,03,21,17,48,10.40
2017,03,21,17,49,10.40
2017,03,21,17,50,10.40
2017,03,21,17,51,10.50
2017,03,21,17,52,10.50
2017,03,21,17,53,10.50
2017,03,21,17,54,10.50
2017,03,21,17,55,10.50
2017,03,21,17,56,10.50